Aberdeen, SD

7:08 PM CDT on May 22, 2017 (GMT -0500)
Aberdeen Regional

Weather History for KABR - October, 2012

Change the Weather History Date:

Monday, October 8, 2012

  Actual Average Record
Temperature  
Mean Temperature 54 °F 49 °F  
Max Temperature 64 °F 62 °F 87 °F (1936)
Min Temperature 43 °F 36 °F 9 °F (1895)
Degree Days  
Heating Degree Days 11 16  
Month to date heating degree days 160 118  
Since 1 July heating degree days 402 392  
Cooling Degree Days 0 0  
Month to date cooling degree days 0 0  
Year to date cooling degree days 764 523  
Moisture  
Dew Point 33 °F    
Average Humidity 51    
Maximum Humidity 65    
Minimum Humidity 37    
Precipitation  
Precipitation 0.00 in 0.06 in 1.58 in (1982)
Month to date precipitation 0.02 0.60  
Year to date precipitation 12.47 19.08  
Snow  
Snow 0.00 in - - ()
Month to date snowfall T  
Since 1 July snowfall T  
Snow Depth 0.00 in    
Sea Level Pressure  
Sea Level Pressure 29.70 in    
Wind  
Wind Speed 13 mph (West)    
Max Wind Speed 31 mph    
Max Gust Speed 38 mph    
Visibility 10 miles    
Events      
T = Trace of Precipitation, MM = Missing Value Source: NWS Daily Summary

Daily Weather History Graph

Daily Weather History Graph

Search for Another Location

Airport or City:

Trip Planner

Search our weather history database for the weather conditions in past years. The results will help you decide how hot, cold, wet, or windy it might be!

Date:

Astronomy

Oct. 08, 2012 Rise Set
Actual Time 7:41 AM CDT 6:59 PM CDT
Civil Twilight 7:11 AM CDT 7:29 PM CDT
Nautical Twilight 6:37 AM CDT 8:03 PM CDT
Astronomical Twilight 6:03 AM CDT 8:38 PM CDT
Moon 12:03 AM CDT (10/8) 3:07 PM CDT (10/8)
Length of Visible Light 12h 17m
Length of Day
11h 18m
Last Quarter, 46% of the Moon is Illuminated
Oct 8
Last Quarter
Oct 15
New
Oct 21
First Quarter
Oct 29
Full
Nov 6
Last Quarter

Hourly Weather History & Observations

Time (CDT) Temp. Windchill Dew Point Humidity Pressure Visibility Wind Dir Wind Speed Gust Speed Precip Events Conditions
12:53 AM 44.1 °F 41.5 °F 27.0 °F 51% 29.79 in 10.0 mi SW 4.6 mph - N/A   Overcast
1:53 AM 45.0 °F 42.6 °F 28.0 °F 52% 29.79 in 10.0 mi SW 4.6 mph - N/A   Overcast
2:53 AM 43.0 °F 39.5 °F 28.9 °F 58% 29.77 in 10.0 mi SSW 5.8 mph - N/A   Overcast
3:53 AM 46.0 °F 43.1 °F 30.0 °F 54% 29.73 in 10.0 mi SSW 5.8 mph - N/A   Overcast
4:53 AM 45.0 °F 41.2 °F 30.0 °F 56% 29.69 in 10.0 mi South 6.9 mph - N/A   Overcast
5:53 AM 44.1 °F 38.6 °F 28.0 °F 53% 29.67 in 10.0 mi South 10.4 mph - N/A   Mostly Cloudy
6:53 AM 46.0 °F 40.6 °F 28.9 °F 51% 29.64 in 10.0 mi South 11.5 mph - N/A   Overcast
7:53 AM 46.0 °F 39.9 °F 28.9 °F 51% 29.63 in 10.0 mi South 13.8 mph - N/A   Overcast
8:53 AM 48.0 °F - 28.9 °F 48% 29.63 in 10.0 mi SW 10.4 mph - N/A   Overcast
9:53 AM 55.0 °F - 32.0 °F 42% 29.61 in 10.0 mi WSW 13.8 mph - N/A   Overcast
10:53 AM 59.0 °F - 37.9 °F 46% 29.62 in 10.0 mi WNW 16.1 mph 26.5 mph N/A   Clear
11:53 AM 61.0 °F - 39.0 °F 44% 29.63 in 10.0 mi NW 24.2 mph 33.4 mph N/A   Clear
12:53 PM 62.1 °F - 39.9 °F 44% 29.65 in 10.0 mi WNW 26.5 mph 32.2 mph N/A   Clear
1:53 PM 63.0 °F - 39.0 °F 41% 29.66 in 10.0 mi NW 23.0 mph - N/A   Scattered Clouds
2:53 PM 61.0 °F - 36.0 °F 39% 29.68 in 10.0 mi NW 26.5 mph 31.1 mph N/A   Overcast
3:53 PM 57.9 °F - 35.1 °F 42% 29.70 in 10.0 mi NNW 24.2 mph 27.6 mph N/A   Overcast
4:53 PM 59.0 °F - 34.0 °F 39% 29.70 in 10.0 mi NW 17.3 mph 26.5 mph N/A   Partly Cloudy
5:53 PM 57.0 °F - 34.0 °F 42% 29.72 in 10.0 mi NW 15.0 mph - N/A   Mostly Cloudy
6:53 PM 55.9 °F - 35.1 °F 45% 29.73 in 10.0 mi NW 15.0 mph - N/A   Mostly Cloudy
7:53 PM 52.0 °F - 35.1 °F 53% 29.76 in 10.0 mi NW 9.2 mph - N/A   Partly Cloudy
8:53 PM 48.9 °F - 35.1 °F 59% 29.76 in 10.0 mi WNW 8.1 mph - N/A   Clear
9:53 PM 45.0 °F 41.2 °F 34.0 °F 65% 29.77 in 10.0 mi West 6.9 mph - N/A   Clear
10:53 PM 48.0 °F - 34.0 °F 58% 29.78 in 10.0 mi WNW 9.2 mph - N/A   Clear
11:53 PM 46.0 °F 43.9 °F 34.0 °F 63% 29.78 in 10.0 mi West 4.6 mph - N/A   Overcast